Location: Audinghen
(50.8518°N, 1.6129°E)
Time: 10:37:55
(UTC+00:00)

Cosmos 1707 - Pass Details

Date: 07 August 2020
Orbit: 515 x 531 km, 82.5° (Epoch: 20 September)

Event Time Altitude Azimuth Distance (km) Brightness Sun altitude
Rises 01:11:45 0° 345° (NNW) 2,689 7.3 -21.0°
Reaches altitude 10° 01:13:56 10° 341° (NNW) 1,793 6.1 -20.9°
Maximum altitude 01:17:46 51° 265° (W) 674 3.0 -20.7°
Enters shadow 01:17:50 51° 261° (W) 675 3.0 -20.6°
